Temperature
12 12 12 12 12 12 12 12 12 12 12 12 12 12 12 12 12 12 12 11 11 11 11 11 11 11 11 11 11 11 11 11 11 11 11 11 11 11 10 10 10 10 10
12 12 12 12 12 12 12 12 12 12 12 12 12 11 11 11 11 11 11 11 11 11 11 11 11 11 11 11 11 11 11 11 11 11 10 10 10 10 10 10 10 10 10
12 12 12 12 12 11 11 11 11 11 11 11 11 11 11 11 11 11 11 11 11 11 11 11 11 10 11 11 11 11 11 10 10 10 10 10 10 10 10 10 10 10 10
12 12 12 12 11 11 11 11 11 11 11 11 11 11 11 11 11 11 11 11 11 11 11 11 11 10 10 10 10 10 10 10 10 10 10 10 10 10 10 10 10 9 9
11 11 11 11 11 11 11 11 11 11 11 11 11 11 11 10 10 10 10 10 10 10 10 11 11 10 10 10 10 10 10 10 10 10 10 10 9 9 9 9 9 9 9
11 11 11 11 11 11 11 11 11 11 11 11 10 10 10 10 10 10 10 10 10 10 10 10 10 10 10 10 10 10 10 10 10 10 9 9 9 9 9 9 9 9 9
11 11 11 11 11 11 11 11 10 10 10 10 10 10 10 10 10 10 10 10 10 10 10 10 10 10 10 10 9 9 9 9 9 9 9 9 9 9 9 9 9 9 8
10 11 11 11 11 11 10 10 10 10 10 10 10 10 9 9 9 9 9 9 9 9 9 9 9 9 10 10 9 9 9 9 9 9 9 9 9 8 8 8 8 8 8
10 10 10 10 10 10 10 10 10 10 10 10 10 10 9 9 9 9 9 9 9 9 9 9 9 9 9 9 9 9 9 9 9 9 8 8 8 8 8 8 8 8 8
9 10 10 10 10 10 10 10 10 10 10 10 10 10 10 10 9 9 9 9 9 9 9 9 9 9 9 9 9 9 9 9 8 8 8 8 8 8 8 7 7 7 7
9 9 9 10 10 10 10 10 10 10 10 10 10 9 9 9 9 9 9 9 9 9 9 9 9 8 9 9 9 9 8 8 8 8 8 8 8 8 7 7 7 7 7
9 9 9 9 9 10 10 9 9 9 9 9 9 9 9 9 9 9 9 9 8 8 8 8 8 8 8 8 8 8 8 8 8 8 8 8 8 7 7 7 7 7 7
8 8 8 9 9 9 9 9 9 9 9 9 9 9 9 9 9 9 9 9 8 8 8 8 8 8 8 8 8 8 8 8 8 8 8 7 7 7 7 7 7 7 6
8 8 8 8 8 9 9 9 9 9 9 9 9 9 9 9 8 8 9 8 8 8 8 8 8 8 8 8 7 7 8 8 8 7 7 7 7 7 7 6 6 6 6
7 8 8 8 8 8 8 8 9 8 8 8 8 8 8 8 8 8 8 8 8 7 7 8 8 8 7 7 7 7 7 7 7 7 7 7 7 6 6 6 6 6 6
7 7 7 7 8 8 8 8 8 8 8 8 8 8 8 8 8 8 8 8 8 8 7 7 7 7 7 7 7 7 7 7 7 7 7 6 6 6 6 6 6 6 5
6 6 7 7 7 7 7 8 8 8 8 8 8 8 8 8 8 7 7 7 7 7 7 7 7 7 6 6 6 6 6 6 6 6 6 6 6 6 6 5 5 5 5
5 6 6 6 6 7 7 7 7 7 7 7 7 7 7 7 7 7 7 7 7 7 7 7 7 6 6 6 6 6 6 6 6 6 6 6 5 5 5 5 5 5 5
5 5 5 6 6 6 6 7 7 7 7 7 7 7 7 7 7 7 7 7 7 6 6 6 6 6 6 6 6 6 6 5 5 5 5 5 5 5 5 5 4 4 4
4 4 5 5 5 5 6 6 6 6 6 6 6 6 6 6 6 6 6 6 6 6 6 6 6 6 5 5 5 5 5 5 5 5 5 4 4 4 4 4 4 4 4
3 3 4 4 4 5 5 5 5 6 6 6 6 6 6 6 6 6 6 6 5 5 5 5 5 5 5 5 5 5 5 4 4 4 4 4 4 4 4 3 3 3 3
2 3 3 3 4 4 4 4 5 5 5 5 5 5 5 5 5 5 5 5 5 5 5 5 5 5 5 5 5 4 4 4 4 4 3 3 3 3 3 3 3 3 3
2 2 2 3 3 3 4 4 4 4 4 5 5 5 5 5 4 5 5 5 5 5 4 4 4 4 4 4 4 4 3 3 3 3 3 3 3 3 3 2 2 2 2
1 1 2 2 2 2 3 3 3 3 3 4 4 4 4 4 4 4 4 4 4 4 4 4 4 4 4 4 3 3 3 3 2 2 2 2 2 2 2 2 2 2 1
0 1 1 1 1 2 2 2 2 2 3 3 3 3 3 3 3 3 3 3 4 4 3 3 3 3 3 3 3 2 2 2 2 2 2 2 2 2 2 2 1 1 1
-1 -0 0 0 1 1 1 1 1 2 2 2 2 3 3 3 3 3 3 3 3 3 3 3 3 2 2 2 2 2 2 2 1 1 1 1 1 1 1 1 1 1 0
Wind_Speed
6 7 7 7 7 8 9 8 7 7 7 8 9 10 9 9 10 9 8 9 9 8 8 8 8 8 8 8 8 8 8 8 8 9 8 8 8 8 8 8 8 9 9
8 7 6 6 7 8 9 9 7 6 6 7 7 8 9 9 9 9 8 8 8 8 7 7 8 7 7 7 8 8 8 8 8 8 7 7 7 7 7 6 7 7 7
10 8 6 6 7 9 9 8 7 6 5 5 5 7 8 8 8 8 8 7 7 7 7 7 7 6 6 6 7 7 7 7 7 7 6 6 5 5 5 6 5 5 5
12 9 6 6 8 9 8 5 5 4 4 4 4 4 5 7 7 7 7 7 7 6 6 5 5 5 5 5 6 6 7 6 6 6 5 5 4 4 4 4 4 4 4
12 10 7 7 9 8 6 5 4 4 5 4 4 3 3 4 5 6 6 6 6 6 5 5 5 4 4 4 5 6 6 5 4 4 4 3 3 3 2 2 3 3 3
12 11 8 8 9 6 4 5 5 4 4 5 5 3 2 2 3 4 5 5 6 6 5 5 4 3 3 3 4 4 4 4 3 3 3 3 2 2 1 1 2 2 2
10 10 7 7 7 5 6 6 4 5 3 4 4 3 2 2 1 2 3 4 4 5 5 5 4 3 2 2 3 3 3 3 3 2 3 3 2 2 1 1 1 1 2
8 9 9 7 7 6 6 6 5 4 3 3 4 4 2 1 1 0 1 2 2 3 3 4 4 4 3 3 3 3 3 3 3 2 3 3 3 3 2 1 0 1 1
6 6 8 8 7 7 7 6 6 6 5 3 3 4 4 4 1 1 1 1 2 1 2 2 3 3 4 4 4 4 4 4 4 4 3 3 3 3 2 2 1 1 1
4 5 7 8 8 6 7 7 6 4 6 5 2 1 2 4 4 2 1 1 2 2 2 2 3 3 4 4 5 5 5 4 4 4 4 4 4 4 3 3 2 2 2
3 4 5 7 8 7 7 6 5 5 5 5 4 2 2 2 2 3 3 2 1 2 2 3 4 4 4 5 5 5 5 5 5 5 5 5 4 4 4 3 3 2 2
2 3 4 5 7 6 7 7 7 7 5 5 4 3 4 3 3 3 3 3 3 2 2 2 4 5 5 5 5 5 5 5 5 5 5 5 5 4 3 3 3 3 3
2 4 3 4 5 6 7 7 7 7 6 7 6 4 3 3 3 3 3 3 2 1 1 1 3 4 4 5 5 5 5 5 5 5 5 5 4 3 3 3 4 4 4
3 4 5 4 5 6 6 6 6 6 6 6 6 5 3 3 3 3 4 4 2 1 1 2 1 3 5 4 4 4 4 5 5 5 5 4 3 3 3 3 4 4 4
2 2 4 4 4 6 6 6 5 6 6 6 6 6 4 3 3 3 4 4 5 4 4 3 2 2 4 4 4 4 4 4 4 4 4 3 3 3 3 4 4 5 4
2 2 3 4 4 5 6 6 5 5 6 6 5 6 5 3 3 3 4 3 3 4 4 4 3 2 2 2 3 3 4 4 4 4 4 4 4 4 4 4 4 4 4
2 3 3 3 4 5 5 5 5 6 7 6 5 6 6 5 4 3 3 3 3 3 3 2 1 1 1 1 2 2 3 4 4 4 5 5 5 5 4 4 4 4 5
3 3 3 3 4 5 5 6 6 6 7 7 6 6 6 5 5 4 4 4 3 3 4 4 2 1 2 2 2 2 3 4 4 4 5 5 5 5 4 4 4 4 5
3 2 2 3 3 4 5 6 6 6 6 6 6 7 6 6 6 4 4 4 3 3 3 3 2 1 1 1 1 1 2 2 4 4 4 5 5 5 5 5 5 5 5
3 3 3 3 3 4 4 4 5 5 5 5 5 6 6 7 7 6 5 5 4 4 3 3 2 1 1 1 1 2 2 2 2 3 4 4 4 5 5 5 5 5 5
3 3 2 3 3 3 3 4 4 4 5 5 5 5 5 6 6 6 5 6 5 4 4 3 3 2 2 2 3 2 2 2 2 2 2 3 3 3 4 5 5 6 6
3 3 3 2 3 3 3 5 4 4 4 5 5 5 5 6 6 7 7 8 8 7 6 4 3 4 4 4 3 2 2 1 3 1 1 2 2 2 4 5 6 6 6
3 3 3 3 3 3 3 4 5 4 4 4 5 5 4 4 5 4 5 6 6 7 8 6 6 6 5 5 4 3 3 3 3 2 1 3 1 3 5 6 7 7 7
3 3 3 4 4 4 3 4 4 3 3 4 4 5 5 5 5 5 4 4 3 4 5 5 5 5 5 5 6 5 4 2 1 1 1 2 2 3 4 6 7 7 6
4 3 3 3 4 3 4 4 4 3 3 3 3 4 5 5 7 7 6 5 4 3 3 5 5 4 5 5 5 3 3 2 2 2 1 2 2 2 2 3 5 6 6
4 3 3 3 3 3 4 5 4 3 3 3 3 4 5 6 7 7 7 6 6 4 3 2 2 2 2 4 5 4 4 3 2 3 2 2 1 1 2 2 3 4 5
Wind_Direction
147 146 145 145 145 144 142 136 131 127 124 122 125 126 126 126 124 117 113 114 115 115 115 116 120 120 115 114 109 104 101 104 105 101 94 88 85 83 78 77 74 73 73
155 154 149 147 151 153 151 145 140 133 126 124 125 130 131 130 128 124 120 119 119 117 115 118 119 118 117 117 114 109 104 104 107 105 99 94 90 84 78 79 80 76 77
160 158 155 153 158 156 149 139 132 126 120 117 121 129 130 129 129 128 125 121 121 119 115 113 114 120 119 120 120 118 111 107 108 107 104 100 92 85 81 82 82 79 78
162 157 155 160 160 154 147 135 133 126 123 125 129 129 127 132 134 132 128 125 123 122 123 121 117 119 124 125 127 125 117 110 108 110 112 108 99 93 87 80 77 81 79
165 160 160 161 157 148 144 145 139 136 135 129 126 122 124 132 140 138 134 136 138 135 134 136 127 120 120 129 137 136 132 126 119 117 122 119 113 107 94 86 75 79 76
166 161 159 159 154 149 150 146 140 131 138 136 117 99 94 120 135 144 148 145 150 150 147 144 141 142 133 132 141 140 140 141 143 145 153 151 147 148 128 110 91 79 64
166 163 161 159 158 164 164 152 137 134 132 130 109 90 44 53 105 140 149 149 157 159 157 158 164 163 165 163 162 159 157 160 164 169 182 187 197 210 207 165 123 78 43
168 169 164 166 163 161 159 157 144 140 146 154 138 131 125 27 339 269 171 169 173 159 161 171 177 180 186 188 196 194 192 193 202 207 214 216 222 235 219 196 62 336 6
168 166 167 165 166 166 172 172 161 152 162 183 169 152 158 193 204 295 237 199 186 177 184 186 191 199 199 203 210 213 217 221 227 233 238 239 228 225 236 250 263 322 347
169 168 171 168 170 172 174 178 171 164 159 172 182 173 156 150 152 173 261 242 213 201 200 201 211 212 208 209 216 224 227 227 230 237 241 242 235 233 246 259 267 290 325
176 170 173 175 175 177 178 177 170 171 168 171 173 161 137 120 128 151 192 221 249 244 223 212 211 221 221 216 217 227 230 232 233 241 246 246 247 253 255 257 264 276 303
203 188 181 180 179 180 182 184 181 180 181 175 178 171 162 164 172 160 173 194 216 253 250 231 216 219 221 213 213 221 228 236 237 246 255 257 254 259 268 267 266 272 287
221 211 196 195 187 185 184 183 183 187 185 183 185 187 177 176 161 155 152 166 193 249 271 269 231 215 214 207 214 219 227 235 238 247 260 262 256 260 271 271 277 277 279
226 217 203 203 197 187 186 183 185 188 187 189 192 186 180 181 168 163 159 155 162 236 260 258 279 224 210 209 217 214 224 235 240 248 259 261 263 271 274 277 281 281 283
240 225 210 207 204 192 188 184 190 191 188 192 193 191 190 188 182 176 163 162 164 192 226 236 237 237 215 209 214 215 226 238 248 255 259 264 265 270 278 281 281 277 282
238 225 223 212 211 200 193 191 191 190 191 196 192 190 195 189 184 182 176 174 168 175 206 217 224 240 217 216 221 220 233 241 245 251 253 256 260 266 269 274 278 278 284
240 229 233 227 222 211 198 197 197 190 195 198 195 194 198 186 184 185 177 171 173 167 198 227 229 230 204 218 247 243 247 242 246 250 250 254 252 255 255 258 268 276 283
261 245 236 233 236 224 204 199 199 196 198 200 201 197 201 190 190 187 181 182 186 181 183 207 219 211 224 217 223 241 263 252 249 254 253 252 247 242 249 257 266 274 280
270 263 243 230 240 232 214 207 201 200 201 200 198 198 202 194 197 194 190 192 195 193 185 188 207 206 232 212 215 273 281 275 269 257 253 248 243 247 252 257 264 269 272
265 254 246 243 247 237 217 208 201 198 199 198 199 200 199 199 200 194 196 199 192 190 182 176 191 200 215 211 178 225 268 272 278 269 260 256 252 255 258 261 265 268 271
277 266 255 265 263 238 219 204 203 198 195 196 200 202 203 203 199 195 199 197 189 192 185 181 192 200 207 196 213 211 237 265 274 263 264 265 259 261 265 266 266 267 270
291 274 257 258 264 252 234 213 205 202 201 201 204 206 205 205 207 204 201 195 191 190 191 192 206 213 221 214 208 206 205 233 270 256 221 267 244 254 260 259 264 266 270
289 268 260 252 258 254 244 222 210 204 206 206 202 203 210 209 203 196 199 199 203 201 195 193 204 216 210 205 197 209 214 221 240 239 217 269 271 261 261 265 266 265 270
277 263 260 256 258 254 247 231 210 201 207 209 207 202 203 207 202 189 189 194 204 208 207 201 204 211 209 203 201 205 206 209 261 258 184 248 268 265 276 271 268 268 270
284 272 260 256 248 252 246 233 206 197 204 210 209 202 200 206 202 188 185 191 202 216 204 193 197 198 198 196 183 155 164 183 242 247 205 217 257 279 282 272 270 271 275
281 279 279 259 247 249 249 241 212 197 203 212 215 211 207 206 201 192 191 191 202 208 177 162 154 166 172 175 174 175 179 193 219 241 219 186 222 278 289 275 273 277 279
Height
1546 1547 1549 1551 1553 1555 1556 1558 1559 1561 1562 1564 1565 1566 1568 1568 1569 1570 1571 1571 1572 1572 1572 1573 1573 1573 1573 1573 1573 1572 1572 1572 1572 1572 1572 1572 1572 1572 1572 1572 1571 1571 1570
1544 1546 1548 1550 1552 1554 1556 1557 1559 1560 1562 1563 1564 1566 1567 1568 1569 1570 1571 1571 1572 1572 1572 1573 1573 1573 1573 1573 1573 1573 1573 1573 1573 1572 1572 1572 1572 1572 1572 1572 1571 1571 1570
1542 1544 1546 1548 1550 1552 1554 1556 1558 1560 1561 1562 1564 1565 1566 1567 1568 1569 1570 1571 1571 1572 1572 1572 1573 1573 1573 1573 1573 1573 1573 1573 1573 1573 1572 1572 1572 1572 1572 1571 1571 1571 1570
1540 1542 1545 1546 1549 1551 1553 1555 1556 1558 1560 1561 1563 1564 1565 1566 1567 1568 1569 1570 1571 1571 1572 1572 1572 1572 1573 1573 1573 1573 1573 1573 1573 1573 1572 1572 1572 1572 1571 1571 1570 1570 1569
1538 1540 1542 1544 1547 1549 1551 1553 1555 1556 1558 1560 1561 1563 1564 1565 1566 1567 1568 1569 1570 1571 1571 1571 1572 1572 1572 1572 1572 1572 1572 1572 1572 1572 1572 1572 1571 1571 1571 1570 1570 1569 1569
1535 1538 1540 1542 1544 1546 1549 1551 1553 1554 1556 1558 1560 1561 1563 1564 1565 1566 1567 1568 1569 1570 1570 1570 1571 1571 1571 1572 1572 1572 1572 1572 1571 1571 1571 1571 1570 1570 1570 1569 1569 1568 1568
1532 1534 1536 1539 1541 1543 1546 1548 1550 1552 1554 1556 1558 1560 1561 1563 1564 1565 1566 1567 1568 1568 1569 1569 1570 1570 1570 1571 1571 1571 1571 1571 1570 1570 1570 1570 1569 1569 1569 1568 1568 1567 1567
1529 1531 1533 1535 1538 1540 1543 1545 1547 1549 1551 1553 1555 1557 1559 1562 1562 1563 1564 1565 1566 1566 1567 1568 1568 1569 1569 1569 1569 1570 1570 1570 1569 1569 1569 1569 1568 1568 1567 1567 1567 1566 1566
1526 1528 1530 1532 1535 1537 1539 1542 1544 1546 1548 1550 1553 1554 1556 1557 1558 1560 1561 1562 1563 1564 1565 1565 1566 1567 1567 1567 1568 1568 1568 1568 1568 1567 1567 1567 1567 1567 1566 1566 1565 1565 1564
1522 1524 1526 1529 1531 1533 1536 1538 1541 1543 1545 1547 1549 1551 1553 1554 1555 1556 1559 1559 1560 1561 1562 1563 1564 1564 1565 1565 1565 1566 1566 1566 1566 1566 1566 1565 1565 1565 1565 1564 1564 1563 1562
1519 1521 1523 1525 1528 1530 1532 1535 1537 1539 1541 1544 1545 1547 1549 1551 1552 1553 1554 1556 1557 1558 1559 1560 1561 1561 1562 1562 1563 1563 1564 1564 1564 1564 1564 1563 1563 1563 1562 1562 1561 1561 1560
1515 1517 1520 1522 1524 1526 1529 1531 1533 1536 1538 1540 1542 1544 1546 1547 1548 1550 1551 1552 1554 1555 1556 1557 1558 1558 1559 1560 1560 1561 1561 1561 1561 1561 1561 1561 1561 1560 1560 1559 1559 1558 1557
1511 1513 1515 1518 1520 1522 1525 1527 1530 1532 1534 1536 1538 1541 1543 1544 1546 1547 1549 1550 1551 1552 1553 1554 1555 1555 1556 1557 1557 1558 1558 1558 1558 1558 1558 1558 1558 1558 1557 1557 1556 1555 1555
1507 1509 1512 1514 1516 1518 1521 1523 1525 1528 1530 1532 1534 1537 1539 1541 1542 1544 1546 1547 1547 1548 1549 1550 1551 1552 1553 1554 1554 1555 1555 1555 1555 1555 1555 1555 1555 1555 1554 1554 1553 1552 1552
1504 1506 1508 1510 1512 1514 1516 1519 1521 1523 1525 1528 1530 1532 1534 1536 1538 1540 1542 1543 1545 1544 1545 1546 1548 1549 1550 1550 1551 1551 1552 1552 1552 1552 1552 1552 1552 1551 1551 1551 1550 1550 1549
1500 1502 1504 1506 1507 1510 1512 1514 1516 1519 1521 1523 1526 1528 1530 1532 1534 1536 1537 1539 1540 1541 1541 1542 1544 1545 1546 1547 1547 1548 1548 1549 1549 1549 1548 1548 1548 1548 1548 1547 1547 1546 1545
1495 1497 1499 1501 1503 1505 1506 1509 1511 1514 1516 1519 1521 1523 1525 1527 1529 1531 1533 1534 1535 1537 1537 1538 1540 1541 1542 1543 1543 1544 1545 1545 1545 1545 1545 1545 1544 1544 1544 1544 1543 1542 1542
1491 1493 1494 1496 1498 1500 1502 1504 1506 1509 1511 1514 1516 1518 1520 1523 1525 1526 1528 1529 1531 1532 1533 1534 1535 1536 1537 1538 1539 1540 1540 1540 1541 1541 1541 1541 1540 1540 1540 1540 1539 1538 1537
1486 1488 1490 1491 1493 1495 1497 1499 1501 1503 1506 1508 1511 1513 1515 1517 1519 1521 1523 1524 1526 1528 1529 1529 1530 1531 1533 1534 1535 1535 1536 1536 1536 1537 1536 1536 1536 1536 1536 1535 1535 1534 1533
1482 1484 1485 1487 1489 1491 1492 1494 1496 1498 1500 1503 1505 1508 1510 1512 1514 1516 1518 1520 1521 1523 1524 1524 1525 1526 1528 1529 1530 1531 1531 1532 1532 1532 1532 1532 1532 1532 1531 1531 1530 1529 1528
1478 1479 1481 1482 1484 1486 1487 1489 1491 1493 1495 1498 1500 1502 1505 1507 1509 1511 1513 1515 1516 1517 1518 1519 1520 1522 1523 1524 1525 1526 1526 1526 1527 1527 1527 1528 1528 1527 1527 1526 1525 1525 1524
1473 1475 1476 1478 1479 1481 1482 1484 1487 1489 1491 1493 1495 1497 1499 1501 1504 1506 1508 1510 1511 1512 1513 1514 1516 1517 1518 1519 1520 1521 1521 1522 1522 1523 1523 1523 1523 1522 1522 1521 1521 1520 1519
1469 1470 1472 1473 1474 1475 1477 1480 1482 1484 1486 1488 1490 1492 1494 1496 1498 1501 1503 1505 1506 1508 1509 1511 1511 1512 1513 1515 1516 1516 1516 1517 1517 1518 1518 1517 1518 1517 1517 1516 1516 1515 1514
1465 1466 1467 1469 1470 1471 1473 1475 1477 1479 1481 1482 1484 1486 1488 1490 1493 1495 1497 1499 1501 1502 1504 1505 1507 1508 1509 1510 1511 1512 1512 1513 1513 1513 1514 1513 1513 1512 1512 1511 1511 1510 1509
1460 1462 1463 1464 1465 1466 1468 1470 1472 1473 1475 1477 1479 1481 1483 1485 1487 1490 1492 1494 1495 1497 1499 1501 1502 1503 1504 1506 1506 1507 1507 1508 1507 1508 1509 1508 1507 1507 1506 1506 1505 1505 1504
1456 1457 1458 1459 1460 1461 1463 1465 1467 1469 1470 1472 1474 1476 1478 1480 1482 1484 1486 1488 1490 1492 1494 1495 1497 1498 1499 1500 1501 1502 1503 1503 1503 1503 1503 1503 1502 1502 1500 1500 1500 1499 1498